Other Public Products
Issued by NWS Grand Forks, ND

Home | Current Version | Previous Version | Graphics & Text | Print | Product List | Glossary On
Versions: 1 2 3 4 5 6 7 8 9 10 11 12 13 14 15 16 17 18 19 20 21 22 23 24 25 26 27 28 29 30 31 32 33 34 35 36 37 38 39 40 41 42 43 44 45 46 47 48 49 50
045
FPUS83 KFGF 231831
OPUFGF
PRAIRIE TO PINES WEATHER ROUNDUP
NATIONAL WEATHER SERVICE EASTERN NORTH DAKOTA/GRAND FORKS ND
100 PM CDT MON MAY 23 2016

 **SATELLITE DATA USED TO AUGMENT SKY COVER AT AUTOMATED STATIONS**
 *****  WEATHER ACROSS EASTERN NORTH DAKOTA  *****

CITY           SKY/WX    TMP DP  RH WIND       PRES   REMARKS
GRAND FORKS    MOSUNNY   77  57  50 W16G23    29.63R
6HR MIN TEMP:  62; 6HR MAX TEMP:  77; 6HR PCP: TRACE;

GRAND FORKS AF SUNNY     77  53  43 W13       29.64R
GRAND CITY NWS NOT AVBL
BUXTON           N/A     79  58  49 W14         N/A
DEVILS LAKE    SUNNY     74  49  41 W13       29.65S
6HR MIN TEMP:  57; 6HR MAX TEMP:  74;

FARGO          MOSUNNY   79  48  33 W13G21    29.66R
6HR MIN TEMP:  64; 6HR MAX TEMP:  80;

WAHPETON ARPT  CLEAR     77  46  33 W14       29.68F
$$

 *****  WEATHER ACROSS CENTRAL AND WESTERN NORTH DAKOTA  *****

CITY           SKY/WX    TMP DP  RH WIND       PRES   REMARKS
JAMESTOWN      MOSUNNY   76  52  43 SW16      29.67R
6HR MIN TEMP:  58; 6HR MAX TEMP:  75;

BISMARCK       SUNNY     77  40  26 NW13      29.68S
6HR MIN TEMP:  52; 6HR MAX TEMP:  77;

MINOT          SUNNY     80  30  16 S15G26    29.61S
6HR MIN TEMP:  56; 6HR MAX TEMP:  80;

MINOT AFB      SUNNY     75  34  22 SW10G24   29.60S
6HR MIN TEMP:  50; 6HR MAX TEMP:  75;

GARRISON         N/A     75  35  23 SW17      29.65S
6HR MIN TEMP:  48; 6HR MAX TEMP:  75;

WILLISTON      MOSUNNY   69  32  25 SW21G30   29.63S
6HR MIN TEMP:  44; 6HR MAX TEMP:  72;

DICKINSON      SUNNY     70  30  22 W20G25    29.68S
6HR MIN TEMP:  45; 6HR MAX TEMP:  70;

HETTINGER      SUNNY     70  33  25 W13G20    29.72F
6HR MIN TEMP:  43; 6HR MAX TEMP:  71;

$$

 *****  OTHER OBSERVATIONS NORTHEAST NORTH DAKOTA  *****

CITY           SKY/WX    TMP DP  RH WIND       PRES   REMARKS
WALHALLA       FAIR      75  50  41 W10G18    29.61R
LANGDON        FAIR      75  52  43 SW17      29.64R
CAVALIER       FAIR      75  52  43 W14       29.61R
GRAFTON        FAIR      75  55  50 W15G21    29.65R
CANDO          FAIR      73  50  43 W16G23    29.65S
FORT TOTTEN      N/A     75  48  37 W8        29.95S
ROLLA            N/A     72  41  33 SW13G23   29.64R
RUGBY          FAIR      75  39  27 SW12G25   29.63S
 ***** THE ABOVE OBSERVATIONS ARE NON NWS ARE NOT QUALITY
        CONTROLLED AND MAY MIS-REPORT RAIN FOR SNOW...
$$

 *****  OTHER OBSERVATIONS SOUTHEAST NORTH DAKOTA *****

CITY           SKY/WX    TMP DP  RH WIND       PRES   REMARKS
COOPERSTOWN    NOT AVBL
VALLEY CITY    FAIR      75  55  50 W13       29.70S
OAKES            N/A    N/A N/A N/A MISG        N/A
GWINNER        FAIR      79  54  41 SW12      29.69S
SHEYENNE NWR     N/A     78  54  43 W9        29.95S
BUFFALO          N/A     76  51  40 W10         N/A
WYNDMERE         N/A     79  54  41 W10         N/A
 ***** THE ABOVE OBSERVATIONS ARE NON NWS ARE NOT QUALITY
       CONTROLLED AND MAY MIS-REPORT RAIN FOR SNOW...
$$

  *****  WEATHER ACROSS NORTHERN MINNESOTA  *****

CITY           SKY/WX    TMP DP  RH WIND       PRES   REMARKS
FLAG ISLAND    PTSUNNY   70  55  60 W15G22    29.60R
WARROAD        MOSUNNY   73  61  64 SW10G21   29.62R
ROSEAU         SUNNY     75  59  57 W14G22    29.62R
HALLOCK        SUNNY     75  57  53 W12G18    29.62R
THF RVR FALLS  CLOUDY    72  55  56 W15       29.67S
6HR MIN TEMP:  61; 6HR MAX TEMP:  73;

HALSTAD        NOT AVBL
FOSSTON        CLOUDY    73  57  56 SW12      29.68S
BAUDETTE       PTSUNNY   73  56  54 W16G25    29.63R
6HR MIN TEMP:  58; 6HR MAX TEMP:  73; 6HR PCP:  0.09;

WASKISH        PTSUNNY   70  63  78 W10       29.67R
CROOKSTON      MOSUNNY   75  59  57 W13G18    29.66S
$$
  *****  WEATHER ACROSS CENTRAL AND WEST MINNESOTA  *****

CITY           SKY/WX    TMP DP  RH WIND       PRES   REMARKS
BEMIDJI        PTSUNNY   75  55  49 W14G20    29.67S
PARK RAPIDS    CLOUDY    74  58  57 SW20G25   29.70R
6HR MIN TEMP:  62; 6HR MAX TEMP:  75; 6HR PCP:  0.01;

WADENA         PTSUNNY   72  57  60 SW13      29.71S
DETROIT LAKES  CLOUDY    73  54  49 W6        29.70F
MOORHEAD       MOSUNNY   79  46  31 W9G17     29.67S
FERGUS FALLS   MOSUNNY   77  54  44 SW5G16    29.66S
ELBOW LAKE     FAIR      74  58  57 SW9G18    29.72S
MORRIS MN      MOSUNNY   75  61  60 SW16G22   29.72S
STAPLES        MOSUNNY   73  57  56 SW13G20   29.72F
WHEATON        SUNNY     79  57  47 W9        29.71F
$$
  *****  WEATHER ELSEWHERE ACROSS MINNESOTA  *****

CITY           SKY/WX    TMP DP  RH WIND       PRES   REMARKS
DULUTH         MOSUNNY   77  55  46 SW17G26   29.73F
6HR MIN TEMP:  62; 6HR MAX TEMP:  77;

INTRNTL FALLS  LGT RAIN  70  58  65 SW14      29.64R
6HR MIN TEMP:  60; 6HR MAX TEMP:  74; 6HR PCP:  0.02;

ELY            PTSUNNY   72  52  49 SW16G22   29.71R
CLOQUET        CLOUDY    75  52  43 SW16G24   29.72F
BRAINERD       CLOUDY    71  59  65 SW16      29.73S
6HR MIN TEMP:  61; 6HR MAX TEMP:  71; 6HR PCP: TRACE;

HIBBING        CLOUDY    73  54  51 SW14G24   29.71S
6HR MIN TEMP:  60; 6HR MAX TEMP:  73;

ALEXANDRIA     LGT RAIN  72  58  61 W14       29.74F
6HR MIN TEMP:  61; 6HR MAX TEMP:  72; 6HR PCP:  0.01;

SAINT CLOUD    PTSUNNY   75  58  55 SW20G26   29.75R
6HR MIN TEMP:  62; 6HR MAX TEMP:  78;

MINNEAPOLIS    CLOUDY    78  58  49 S20G33    29.74F
6HR MIN TEMP:  69; 6HR MAX TEMP:  78; 6HR PCP: TRACE;

$$

  *****  WEATHER ACROSS SOUTH DAKOTA  *****

CITY           SKY/WX    TMP DP  RH WIND       PRES   REMARKS
SIOUX FALLS    CLOUDY    67  62  84 SW7       29.78R
6HR MIN TEMP:  61; 6HR MAX TEMP:  69; 6HR PCP: TRACE;

BROOKINGS      CLOUDY    70  61  73 S12       29.76S
WATERTOWN      CLOUDY    72  59  63 SW13      29.74F
6HR MIN TEMP:  60; 6HR MAX TEMP:  72;

HURON          MOSUNNY   73  57  57 VRB7      29.72F
6HR MIN TEMP:  59; 6HR MAX TEMP:  73;

SISSETON         N/A     76  57  51 W15       29.69S
ABERDEEN       SUNNY     76  54  46 SW12      29.70F
6HR MIN TEMP:  57; 6HR MAX TEMP:  76;

MITCHELL       MOSUNNY   70  55  59 S7        29.75F
PIERRE         SUNNY     72  52  49 S7        29.70F
6HR MIN TEMP:  52; 6HR MAX TEMP:  72;

MOBRIDGE       SUNNY     74  48  39 VRB7      29.68S
RAPID CITY     SUNNY     70  39  32 SE8       29.74F
6HR MIN TEMP:  41; 6HR MAX TEMP:  71;

$$

  *****  SOME WEATHER IN NEARBY STATES *****

CITY           SKY/WX    TMP DP  RH WIND       PRES   REMARKS
GLASGOW MT     PTSUNNY   58  41  53 W24G35    29.63S
6HR MIN TEMP:  52; 6HR MAX TEMP:  59;

GREAT FALLS MT CLOUDY    54  35  48 SW18G26   29.71R
6HR MIN TEMP:  47; 6HR MAX TEMP:  54;

CHEYENNE WY    PTSUNNY   63  35  35 S12       29.91F
6HR MIN TEMP:  41; 6HR MAX TEMP:  63;

SCOTTSBLUFF NE MOSUNNY   67  35  30 W15       29.85R
6HR MIN TEMP:  45; 6HR MAX TEMP:  67;

OMAHA NE       LGT RAIN  69  65  86 SE14      29.74F
6HR MIN TEMP:  68; 6HR MAX TEMP:  76; 6HR PCP:  0.12;

DES MOINES IA  CLOUDY    75  59  57 S23       29.88S
6HR MIN TEMP:  62; 6HR MAX TEMP:  76;

DAVENPORT IA   CLOUDY    83  44  25 S15G22    29.95F
6HR MIN TEMP:  62; 6HR MAX TEMP:  83;

CHICAGO IL     MOSUNNY   79  45  29 SE8       30.00F
6HR MIN TEMP:  56; 6HR MAX TEMP:  79;

EAU CLAIRE WI  SUNNY     82  54  37 S18G25    29.82F
6HR MIN TEMP:  62; 6HR MAX TEMP:  82;

LA CROSSE WI   MOSUNNY   84  49  29 S17G26    29.85F
6HR MIN TEMP:  64; 6HR MAX TEMP:  84;

$$

  *****  SOME NATIONAL WEATHER *****

CITY           SKY/WX    TMP DP  RH WIND       PRES   REMARKS
LA GUARDIA NY  MOSUNNY   74  57  55 VRB6      29.89F
6HR MIN TEMP:  61; 6HR MAX TEMP:  77;                              C1F1C2F2C3F3C4F4C5F5C6F6C7F7C8F8C9F9CaFaCbFbCcFcCdFdCe!



USA.gov is the U.S. government's official web portal to all federal, state and local government web resources and services.